Regional Weather Roundup
Issued by NWS Columbia, SC

Home | Current Version | Previous Version | Text Only | Print | Product List | Glossary On
Versions: 1 2 3 4 5 6 7 8 9 10 11 12 13 14 15 16 17 18 19 20 21 22 23 24 25 26 27
000
ASUS42 KCAE 242210
RWRCAE
REGIONAL WEATHER ROUNDUP
NATIONAL WEATHER SERVICE COLUMBIA SC
600 PM EDT MON APR 24 2017

NOTE: "FAIR" INDICATES FEW OR NO CLOUDS BELOW 12,000 FEET WITH NO
SIGNIFICANT WEATHER AND/OR OBSTRUCTIONS TO VISIBILITY.

NOT ALL STATIONS ARE QUALITY CONTROLLED BY THE NATIONAL
WEATHER SERVICE. USE DATA WITH CAUTION...ESPECIALLY
DEWPOINT OBSERVATIONS.

SCZ001>056-GAZ040-063>065-077-242300-
...UPSTATE SOUTH CAROLINA...

CITY           SKY/WX    TMP DP  RH WIND       PRES   REMARKS
ANDERSON       CLOUDY    57  53  86 CALM      29.73R
LIBERTY        CLOUDY    58  55  89 E8        29.72R
SPARTANBURG    CLOUDY    54  50  87 NE13      29.74R
CLEMSON        CLOUDY    61  53  75 E5        29.73F
GREENVILLE     CLOUDY    57  53  86 NE15      29.74R
GREENWOOD      CLOUDY    57  52  83 NE10      29.73R
GREER          CLOUDY    55  52  89 NE14      29.73R
ROCK HILL      RAIN      55  53  93 NE13G22   29.73F FOG
CHESTER        RAIN      54  54 100 S5G26     29.72R
LAURENS        CLOUDY    54  54 100 NE12      29.72R


...CENTRAL SOUTH CAROLINA...

CITY           SKY/WX    TMP DP  RH WIND       PRES   REMARKS
COLUMBIA APT   CLOUDY    63  58  83 N9        29.66S
COLUMBIA OWENS   N/A    N/A N/A N/A E10       29.67S
MCENTIRE ANGB  CLOUDY    63  60  90 N6        29.65S
ORANGEBURG     TSTM      63  61  93 N12       29.64R FOG
SUMTER SHAW    PTSUNNY   64  61  88 NE12      29.63S FOG
NEWBERRY       CLOUDY    55  54  94 N14G20    29.72F
AIKEN          CLOUDY    59  54  82 N9        29.70S
BARNWELL       CLOUDY    63  61  94 N9        29.65R
MANNING        CLOUDY    63  61  94 E9        29.62F
CAMDEN         CLOUDY    61  59  94 N7        29.68S
LANCASTER      CLOUDY    55  55 100 N5        29.71R
WINNSBORO      CLOUDY    57  55  94 N8        29.68F


...EASTERN AND COASTAL SOUTH CAROLINA...

CITY           SKY/WX    TMP DP  RH WIND       PRES   REMARKS
MYRTLE BEACH   CLOUDY    66  66 100 N9        29.63F
N MYRTLE BCH   CLOUDY    68  66  93 N5        29.62F
CONWAY         RAIN      64  63  94 N3        29.64S
MARION         CLOUDY    59  59 100 N10       29.66S
HARTSVILLE     CLOUDY    57  55  94 NE15      29.66F
FLORENCE       LGT RAIN  60  60 100 NE15      29.66F
DARLINGTON     LGT RAIN  60  59  96 NE13      29.68F
CHARLESTON APT PTSUNNY   71  63  75 NE9       29.58F
MOUNT PLEASANT MOCLDY    73  66  78 CALM      29.59S
WALTERBORO     CLOUDY    72  59  64 W15       29.60S
BEAUFORT       MOSUNNY   75  52  44 W10       29.61S


...EASTERN GEORGIA...

CITY           SKY/WX    TMP DP  RH WIND       PRES   REMARKS
AUGUSTA BUSH F CLOUDY    63  56  78 VRB5      29.67R
AUGUSTA DANIEL CLOUDY    61  52  72 NW9       29.68S
THOMSON        CLOUDY    61  57  88 NW5       29.74S
WASHINGTON     CLOUDY    63  59  88 NW3       29.71R
CLAXTON        MOCLDY    70  56  62 SW8       29.66R
SYLVANIA       CLOUDY   N/A N/A N/A W7        29.66R
STATESBORO     CLOUDY    68  57  67 NW9       29.66R
SAVANNAH       MOSUNNY   75  48  38 W15       29.63S


...SOUTHERN NORTH CAROLINA...

CITY           SKY/WX    TMP DP  RH WIND       PRES   REMARKS
CHARLOTTE      LGT RAIN  55  52  89 N9        29.76S FOG
MONROE         LGT RAIN  56  53  90 NE12      29.73S
WADESBORO      RAIN      57  55  92 N3        29.73F
RUTHERFORDTON  DRIZZLE   55  54  99 N10       29.77F
ASHEVILLE      CLOUDY    56  52  86 N12       29.76F

$$




USA.gov is the U.S. government's official web portal to all federal, state and local government web resources and services.